TimeEST,TemperatureF,Dew PointF,Humidity,Sea Level PressureIn,VisibilityMPH,Wind Direction,Wind SpeedMPH,Gust SpeedMPH,PrecipitationIn,Events,Conditions,WindDirDegrees,DateUTC
12:15 AM,24.8,17.6,74,29.91,10.0,SSW,3.5,-,N/A,,Overcast,210,2012-12-11 05:15:00
12:35 AM,24.8,17.6,74,29.91,10.0,SW,3.5,-,N/A,,Overcast,220,2012-12-11 05:35:00
12:55 AM,24.8,17.6,74,29.90,10.0,Calm,Calm,-,N/A,,Overcast,0,2012-12-11 05:55:00
1:15 AM,24.8,19.4,80,29.89,10.0,North,3.5,-,N/A,,Overcast,350,2012-12-11 06:15:00
1:35 AM,23.0,17.6,80,29.89,10.0,Calm,Calm,-,N/A,,Overcast,0,2012-12-11 06:35:00
1:55 AM,23.0,19.4,86,29.89,10.0,Calm,Calm,-,N/A,,Overcast,0,2012-12-11 06:55:00
2:15 AM,21.2,17.6,86,29.89,10.0,Calm,Calm,-,N/A,,Overcast,0,2012-12-11 07:15:00
2:35 AM,19.4,17.6,93,29.89,9.0,Calm,Calm,-,N/A,,Overcast,0,2012-12-11 07:35:00
2:55 AM,19.4,15.8,86,29.89,10.0,Calm,Calm,-,N/A,,Overcast,0,2012-12-11 07:55:00
3:15 AM,19.4,15.8,86,29.88,10.0,Calm,Calm,-,N/A,,Overcast,0,2012-12-11 08:15:00
3:35 AM,19.4,15.8,86,29.89,4.0,Calm,Calm,-,N/A,,Overcast,0,2012-12-11 08:35:00
3:55 AM,17.6,15.8,93,29.88,10.0,Calm,Calm,-,N/A,,Overcast,0,2012-12-11 08:55:00
4:15 AM,17.6,14.0,86,29.87,10.0,Calm,Calm,-,N/A,,Overcast,0,2012-12-11 09:15:00
4:35 AM,17.6,14.0,86,29.87,10.0,Calm,Calm,-,N/A,,Overcast,0,2012-12-11 09:35:00
4:55 AM,17.6,15.8,93,29.87,10.0,Calm,Calm,-,N/A,,Overcast,0,2012-12-11 09:55:00
5:15 AM,19.4,15.8,86,29.87,10.0,Calm,Calm,-,N/A,,Overcast,0,2012-12-11 10:15:00
5:35 AM,19.4,14.0,80,29.87,10.0,Calm,Calm,-,N/A,,Overcast,0,2012-12-11 10:35:00
5:55 AM,21.2,17.6,86,29.87,10.0,Calm,Calm,-,N/A,,Overcast,0,2012-12-11 10:55:00
6:15 AM,24.8,17.6,74,29.87,10.0,WSW,6.9,-,N/A,,Overcast,240,2012-12-11 11:15:00
6:35 AM,24.8,17.6,74,29.87,10.0,SW,5.8,-,N/A,,Overcast,230,2012-12-11 11:35:00
6:55 AM,24.8,17.6,74,29.87,10.0,WSW,4.6,-,N/A,,Overcast,240,2012-12-11 11:55:00
7:15 AM,24.8,19.4,80,29.87,10.0,South,4.6,-,N/A,,Overcast,190,2012-12-11 12:15:00
7:35 AM,24.8,17.6,74,29.87,10.0,South,6.9,-,N/A,,Overcast,190,2012-12-11 12:35:00
7:55 AM,26.6,19.4,74,29.87,10.0,SSW,5.8,-,N/A,,Overcast,200,2012-12-11 12:55:00
8:15 AM,24.8,19.4,80,29.87,10.0,SSW,5.8,-,N/A,,Overcast,210,2012-12-11 13:15:00
8:35 AM,24.8,17.6,74,29.86,10.0,WSW,3.5,-,N/A,,Mostly Cloudy,240,2012-12-11 13:35:00
8:55 AM,24.8,19.4,80,29.86,10.0,WSW,9.2,-,N/A,,Overcast,250,2012-12-11 13:55:00
9:15 AM,24.8,17.6,74,29.86,9.0,SW,10.4,-,N/A,,Overcast,230,2012-12-11 14:15:00
9:35 AM,24.8,19.4,80,29.87,10.0,SW,9.2,-,N/A,,Overcast,220,2012-12-11 14:35:00
9:55 AM,24.8,19.4,80,29.86,10.0,SW,9.2,-,N/A,,Mostly Cloudy,230,2012-12-11 14:55:00
10:15 AM,26.6,19.4,74,29.86,10.0,SW,6.9,-,N/A,,Mostly Cloudy,220,2012-12-11 15:15:00
10:35 AM,26.6,19.4,74,29.86,10.0,SSW,6.9,-,N/A,,Overcast,210,2012-12-11 15:35:00
10:55 AM,26.6,19.4,74,29.86,10.0,SW,9.2,-,N/A,,Scattered Clouds,220,2012-12-11 15:55:00
11:15 AM,26.6,19.4,74,29.86,10.0,SW,10.4,-,N/A,,Partly Cloudy,230,2012-12-11 16:15:00
11:35 AM,26.6,19.4,74,29.85,10.0,SSW,12.7,16.1,N/A,,Scattered Clouds,210,2012-12-11 16:35:00
11:55 AM,26.6,19.4,74,29.85,10.0,SSW,11.5,-,N/A,,Overcast,210,2012-12-11 16:55:00
12:15 PM,26.6,19.4,74,29.83,10.0,SSW,10.4,-,N/A,,Overcast,200,2012-12-11 17:15:00
12:35 PM,26.6,19.4,74,29.83,10.0,SW,12.7,-,N/A,,Overcast,220,2012-12-11 17:35:00
12:55 PM,28.4,19.4,69,29.82,10.0,SSW,11.5,19.6,N/A,,Overcast,210,2012-12-11 17:55:00
1:15 PM,28.4,17.6,64,29.81,10.0,SW,11.5,-,N/A,,Overcast,220,2012-12-11 18:15:00
1:35 PM,28.4,17.6,64,29.81,10.0,SW,15.0,-,N/A,,Overcast,220,2012-12-11 18:35:00
1:55 PM,28.4,17.6,64,29.81,10.0,SW,10.4,-,N/A,,Overcast,220,2012-12-11 18:55:00
2:15 PM,28.4,17.6,64,29.80,10.0,SW,15.0,21.9,N/A,,Overcast,220,2012-12-11 19:15:00
2:35 PM,28.4,14.0,55,29.79,10.0,SW,11.5,18.4,N/A,,Overcast,220,2012-12-11 19:35:00
2:55 PM,28.4,15.8,59,29.79,10.0,SSW,15.0,24.2,N/A,,Overcast,210,2012-12-11 19:55:00
3:15 PM,26.6,15.8,64,29.79,10.0,SW,17.3,26.5,N/A,,Overcast,220,2012-12-11 20:15:00
3:35 PM,26.6,15.8,64,29.80,10.0,SW,16.1,19.6,N/A,,Overcast,220,2012-12-11 20:35:00
3:55 PM,26.6,15.8,64,29.81,10.0,SW,13.8,21.9,N/A,,Overcast,220,2012-12-11 20:55:00
4:15 PM,26.6,17.6,69,29.82,10.0,SSW,12.7,-,N/A,,Overcast,210,2012-12-11 21:15:00
4:35 PM,24.8,15.8,69,29.82,10.0,SW,13.8,21.9,N/A,,Overcast,220,2012-12-11 21:35:00
4:55 PM,24.8,17.6,74,29.82,10.0,SW,12.7,16.1,N/A,,Overcast,220,2012-12-11 21:55:00
5:15 PM,24.8,17.6,74,29.83,10.0,SW,12.7,-,N/A,,Overcast,220,2012-12-11 22:15:00
5:35 PM,24.8,17.6,74,29.83,10.0,SW,10.4,-,N/A,,Overcast,230,2012-12-11 22:35:00
5:55 PM,24.8,17.6,74,29.84,10.0,SW,11.5,-,N/A,,Overcast,230,2012-12-11 22:55:00
6:15 PM,24.8,15.8,69,29.85,10.0,SW,11.5,19.6,N/A,,Overcast,230,2012-12-11 23:15:00
6:35 PM,24.8,15.8,69,29.86,10.0,WSW,13.8,19.6,N/A,,Overcast,240,2012-12-11 23:35:00
6:55 PM,24.8,14.0,64,29.87,10.0,WSW,13.8,23.0,N/A,,Overcast,240,2012-12-11 23:55:00
7:15 PM,24.8,14.0,64,29.87,10.0,WSW,15.0,19.6,N/A,,Overcast,240,2012-12-12 00:15:00
7:35 PM,24.8,15.8,69,29.88,10.0,WSW,12.7,17.3,N/A,,Overcast,250,2012-12-12 00:35:00
7:55 PM,23.0,15.8,74,29.89,10.0,WSW,11.5,18.4,N/A,,Overcast,250,2012-12-12 00:55:00
8:15 PM,23.0,12.2,63,29.90,10.0,WSW,9.2,-,N/A,,Overcast,240,2012-12-12 01:15:00
8:35 PM,23.0,14.0,68,29.90,10.0,WSW,13.8,18.4,N/A,,Overcast,250,2012-12-12 01:35:00
8:55 PM,23.0,12.2,63,29.91,10.0,West,11.5,-,N/A,,Overcast,260,2012-12-12 01:55:00
9:15 PM,21.2,14.0,74,29.91,10.0,WSW,9.2,-,N/A,,Overcast,250,2012-12-12 02:15:00
9:35 PM,21.2,12.2,68,29.93,10.0,WSW,11.5,-,N/A,,Overcast,250,2012-12-12 02:35:00
9:55 PM,21.2,12.2,68,29.93,10.0,West,9.2,-,N/A,,Overcast,260,2012-12-12 02:55:00
10:15 PM,21.2,12.2,68,29.94,10.0,West,9.2,-,N/A,,Overcast,270,2012-12-12 03:15:00
10:35 PM,21.2,14.0,74,29.94,10.0,West,8.1,-,N/A,,Overcast,270,2012-12-12 03:35:00
10:55 PM,21.2,14.0,74,29.95,10.0,West,5.8,-,N/A,,Overcast,270,2012-12-12 03:55:00
11:15 PM,21.2,12.2,68,29.96,10.0,WSW,4.6,-,N/A,,Overcast,240,2012-12-12 04:15:00
11:35 PM,21.2,12.2,68,29.96,10.0,WSW,6.9,-,N/A,,Overcast,240,2012-12-12 04:35:00
11:55 PM,21.2,12.2,68,29.98,10.0,WSW,8.1,-,N/A,,Overcast,240,2012-12-12 04:55:00